Location: Boussy-Saint-Antoine
(48.6830°N, 2.5330°E)
Time: 22:22:10
(UTC+02:00)

JY1SAT - Visible Passes

Search period start: 22 July 2019 00:00
Search period end: 01 August 2019 00:00
Orbit: 571 x 591 km, 97.7° (Epoch: 22 July)

Date Brightness Start Highest point End Pass type
(mag) Time Alt. Az. Time Alt. Az. Time Alt. Az.
22 Jul ? 23:46:09 22° S 23:48:44 65° WSW 23:52:54 10° NNW visible
23 Jul ? 22:16:23 10° ESE 22:19:10 18° ENE 22:21:57 10° NNE visible
23 Jul ? 23:51:38 22° S 23:54:07 57° W 23:58:15 10° NNW visible
24 Jul ? 22:21:30 10° ESE 22:24:30 19° ENE 22:27:30 10° NNE visible
24 Jul ? 23:57:08 23° SSW 23:59:31 50° W 00:03:36 10° NNW visible
25 Jul ? 22:26:38 10° ESE 22:29:49 22° ENE 22:33:01 10° NNE visible
26 Jul ? 00:02:38 22° SSW 00:04:55 44° W 00:08:56 10° NNW visible
26 Jul ? 22:31:48 10° ESE 22:35:09 24° ENE 22:38:31 10° N visible
27 Jul ? 00:08:07 22° SSW 00:10:19 38° W 00:14:15 10° NNW visible
27 Jul ? 22:37:15 11° ESE 22:40:29 27° ENE 22:44:00 10° N visible
28 Jul ? 00:13:37 21° SSW 00:15:44 34° W 00:19:34 10° NNW visible
28 Jul ? 22:42:45 13° ESE 22:45:50 29° ENE 22:49:28 10° N visible
29 Jul ? 00:19:07 20° SW 00:21:09 30° W 00:24:51 10° NNW visible
29 Jul ? 22:48:15 15° SE 22:51:10 33° ENE 22:54:55 10° N visible
30 Jul ? 00:24:37 19° SW 00:26:33 27° W 00:30:08 10° NW visible
30 Jul ? 22:53:45 17° SE 22:56:31 37° ENE 23:00:22 10° N visible
31 Jul ? 00:30:07 18° SW 00:31:58 24° W 00:35:22 10° NW visible
31 Jul ? 22:59:16 19° SE 23:01:52 41° ENE 23:05:48 10° N visible
